This demonstration page uses our WeatherBlox Daily Observations layout. Learn more.

Left ArrowRight Arrow

31.84235, -102.49876

Hourly Observations for March 3, 2018

Temp ( °F °C ) Dew Point ( °F °C ) Humidity (%) Winds ( mph kmh ) Pressure ( in mb ) Visibility ( mi km ) Precip ( " mm )
12:53 am 00:53 Clear 55 12.8 39 3.9 55 55 S 9 15 30.04 1017 10 16 0.00 0.00
1:53 am 01:53 Clear 52 11.1 40 4.4 64 64 SSE 9 15 30.04 1017 10 16 0.00 0.00
2:53 am 02:53 Clear 51 10.6 40 4.4 66 66 SSE 9 15 30.02 1017 10 16 0.00 0.00
3:53 am 03:53 Clear 51 10.6 42 5.6 71 71 SSE 10 17 30.00 1016 10 16 0.00 0.00
4:53 am 04:53 Clear 50 10 43 6.1 77 77 SSE 9 15 29.99 1016 10 16 0.00 0.00
5:53 am 05:53 Clear 50 10 44 6.7 80 80 SSE 10 17 29.98 1015 10 16 0.00 0.00
6:53 am 06:53 Clear 50 10 46 7.8 86 86 S 8 13 30.00 1016 10 16 0.00 0.00
7:53 am 07:53 Sunny 50 10 47 8.3 89 89 SSE 9 15 30.02 1017 9 14 0.00 0.00
8:53 am 08:53 Sunny 56 13.3 50 10 81 81 SSE 14 22 30.02 1017 10 16 0.00 0.00
9:53 am 09:53 Sunny 61 16.1 49 9.4 65 65 S 16 26 30.01 1016 10 16 0.00 0.00
10:53 am 10:53 Sunny 65 18.3 49 9.4 56 56 S 9 15 30.02 1017 10 16 0.00 0.00
11:53 am 11:53 Sunny 69 20.6 48 8.9 47 47 SSW 17 28 30.00 1016 10 16 0.00 0.00
12:53 pm 12:53 Sunny 71 21.7 47 8.3 42 42 SSW 14 22 29.98 1015 10 16 0.00 0.00
1:53 pm 13:53 Sunny 72 22.2 46 7.8 40 40 S 13 20 29.96 1014 10 16 0.00 0.00
2:53 pm 14:53 Sunny 74 23.3 44 6.7 34 34 S 13 20 29.93 1013 10 16 0.00 0.00
3:53 pm 15:53 Sunny 74 23.3 44 6.7 34 34 S 12 19 29.91 1013 10 16 0.00 0.00
4:53 pm 16:53 Sunny 76 24.4 42 5.6 30 30 SSE 13 20 29.88 1012 10 16 0.00 0.00
5:53 pm 17:53 Sunny 75 23.9 45 7.2 34 34 SSE 14 22 29.90 1012 10 16 0.00 0.00
6:53 pm 18:53 Clear 70 21.1 51 10.6 51 51 SSE 17 28 29.91 1013 10 16 0.00 0.00
7:53 pm 19:53 Clear 67 19.4 52 11.1 59 59 SSE 18 30 29.93 1014 10 16 0.00 0.00
8:53 pm 20:53 Clear 63 17.2 53 11.7 70 70 SSE 18 30 29.94 1014 10 16 0.00 0.00
9:53 pm 21:53 Clear 62 16.7 54 12.2 75 75 S 16 26 29.95 1014 10 16 0.00 0.00
10:53 pm 22:53 Clear 61 16.1 54 12.2 78 78 SSE 14 22 29.93 1013 10 16 0.00 0.00
11:53 pm 23:53 Clear 60 15.6 56 13.3 86 86 S 15 24 29.92 1013 10 16 0.00 0.00

Powered by AerisWeather